Saint Martin Island, Guadeloupe

4:28 AM AST on November 25, 2017 (GMT -0400)
Saint Martin Island

Weather History for 78866 - November, 2011

Change the Weather History Date:

Monday, November 28, 2011

  Actual Average Record
Temperature  
Mean Temperature 80 °F -  
Max Temperature 84 °F 82 °F - ()
Min Temperature 75 °F 73 °F - ()
Cooling Degree Days 14    
Growing Degree Days 30 (Base 50)    
Moisture  
Dew Point 72 °F    
Average Humidity 78    
Maximum Humidity 94    
Minimum Humidity 68    
Precipitation  
Precipitation 0.24 in 0.12 in - ()
Sea Level Pressure  
Sea Level Pressure 29.78 in    
Wind  
Wind Speed 8 mph ()    
Max Wind Speed 13 mph    
Max Gust Speed -    
Visibility 7.4 miles    
Events Rain    
T = Trace of Precipitation, MM = Missing Value Source: Averaged Metar Reports

Daily Weather History Graph

Daily Weather History Graph

Search for Another Location

Airport or City:

Trip Planner

Search our weather history database for the weather conditions in past years. The results will help you decide how hot, cold, wet, or windy it might be!

Date:

Astronomy

Nov. 28, 2011 Rise Set
Actual Time 6:25 AM AST 5:34 PM AST
Civil Twilight 6:02 AM AST 5:58 PM AST
Nautical Twilight 5:35 AM AST 6:25 PM AST
Astronomical Twilight 5:08 AM AST 6:51 PM AST
Moon 9:35 AM AST (11/28) 9:10 PM AST (11/28)
Length of Visible Light 11h 55m
Length of Day
11h 09m
Waxing Crescent, 15% of the Moon is Illuminated
Nov 28
Waxing Crescent
Dec 2
First Quarter
Dec 10
Full
Dec 17
Last Quarter
Dec 24
New

Hourly Weather History & Observations

Time (AST) Temp. Heat Index Dew Point Humidity Pressure Visibility Wind Dir Wind Speed Gust Speed Precip Events Conditions
12:00 AM 77.0 °F - 71.6 °F 83% 29.83 in 6.2 mi East 10.4 mph - N/A   Scattered Clouds
1:00 AM 77.0 °F - 71.6 °F 83% 29.80 in 6.2 mi East 12.7 mph - N/A   Scattered Clouds
2:00 AM 78 °F - 71 °F 73% 29.81 in 16 mi ESE 11.5 mph - -   Partly Cloudy
3:00 AM 78.8 °F - 69.8 °F 74% 29.77 in 6.2 mi East 10.4 mph - N/A   Mostly Cloudy
4:00 AM 78.8 °F - 69.8 °F 74% 29.77 in 6.2 mi ESE 6.9 mph - N/A   Mostly Cloudy
5:00 AM 78 °F - 72 °F 77% 29.78 in 16 mi ESE 6.9 mph - -   Mostly Cloudy
6:00 AM 78.8 °F - 71.6 °F 78% 29.80 in 6.2 mi East 8.1 mph - N/A   Mostly Cloudy
7:00 AM 78.8 °F - 71.6 °F 78% 29.80 in 6.2 mi East 10.4 mph - N/A   Mostly Cloudy
8:00 AM 78.8 °F - 73.4 °F 83% 29.80 in 6.2 mi East 9.2 mph - N/A   Scattered Clouds
9:00 AM 80.6 °F 84.6 °F 71.6 °F 74% 29.83 in 6.2 mi East 12.7 mph - N/A   Scattered Clouds
10:00 AM 80.6 °F 84.6 °F 71.6 °F 74% 29.83 in 6.2 mi ESE 9.2 mph - N/A   Mostly Cloudy
12:00 PM 82.4 °F 87.2 °F 71.6 °F 70% 29.77 in 6.2 mi SE 10.4 mph - N/A   Scattered Clouds
1:00 PM 84.2 °F 90.9 °F 73.4 °F 70% 29.77 in 6.2 mi ESE 8.1 mph - N/A   Scattered Clouds
2:00 PM 82 °F - 73 °F 68% 29.76 in 28 mi SSE 6.9 mph - -   Partly Cloudy
2:00 PM 82.4 °F 88.2 °F 73.4 °F 74% 29.74 in 6.2 mi SE 9.2 mph - N/A   Mostly Cloudy
3:00 PM 80.6 °F 85.4 °F 73.4 °F 79% 29.74 in 6.2 mi SE 11.5 mph - N/A Rain Light Rain Showers
4:00 PM 82.4 °F 88.2 °F 73.4 °F 74% 29.74 in 6.2 mi SE 6.9 mph - N/A   Mostly Cloudy
6:00 PM 77.0 °F - 73.4 °F 89% 29.74 in 6.2 mi Variable 3.5 mph - N/A Rain Light Rain Showers
7:00 PM 75.2 °F - 73.4 °F 94% 29.77 in 6.2 mi East 5.8 mph - N/A Rain Light Rain Showers
9:00 PM 77.0 °F - 75.2 °F 94% 29.77 in 6.2 mi SE 5.8 mph - N/A Rain Light Rain Showers
11:00 PM 80 °F - 74 °F 77% 29.79 in 12 mi SSE 12.7 mph - -   Partly Cloudy
11:00 PM 80.6 °F 85.4 °F 73.4 °F 79% 29.77 in 6.2 mi SSE 12.7 mph - N/A   Scattered Clouds